User: anonymous   Login
Location: Unspecified
(0.0000°N, 0.0000°E)
Time: 01:56:00
(UTC+00:00)
Language:

AGILE - Orbit

View from above orbital plane
View from above orbital plane
View from above satellite
View from above satellite

Ground track
Ground track

The orbit data is extracted from the following two-line orbital elements,

1 31135U 07013A   16149.18392298  .00003112  00000-0  70983-4 0  9995
2 31135   2.4672 223.4205 0013180 136.1920 223.9180 15.28098468504688
Epoch (UTC): 28 May 2016 04:24:50
Eccentricity: 0.0013180
inclination: 2.4672°
perigee height: 472 km
apogee height: 490 km
right ascension of ascending node: 223.4205°
argument of perigee: 136.1920°
revolutions per day: 15.28098468
mean anomaly at epoch: 223.9180°
orbit number at epoch: 50468

The dashed part of the orbit path shows where the satellite is in the earth's shadow,  

DLR